Regional Weather Roundup
Issued by NWS Upton, NY

Current Version | Previous Version | Text Only | Print | Product List | Glossary Off
Versions: 1 2 3 4 5 6 7 8 9 10 11 12 13 14 15 16 17 18 19 20 21 22 23 24 25 26 27 28 29 30 31 32 33 34 35 36 37 38 39 40 41 42 43 44 45 46 47 48 49 50
000 ASUS41 KOKX 061408 RWROKX REGIONAL WEATHER ROUNDUP NATIONAL WEATHER SERVICE NEW YORK NY 1000 AM EDT MON JUL 06 2015 NOTE: "FAIR" INDICATES FEW OR NO CLOUDS BELOW 12,000 FEET WITH NO SIGNIFICANT WEATHER AND/OR OBSTRUCTIONS TO VISIBILITY. NYZ071-072-176-178-NJZ106-104-061500- NEW YORK CITY METRO AREA CITY SKY/WX TMP DP RH WIND PRES REMARKS CENTRAL PARK PTSUNNY 79 68 69 CALM 30.19R LAGUARDIA APRT PTSUNNY 79 66 64 VRB7 30.15S KENNEDY INTL PTSUNNY 78 68 71 S7 30.18R NEWARK/LIBERTY PTSUNNY 79 66 64 SE6 30.16R BRNX BOT. GARD N/A 79 66 65 S5 30.18R TETERBORO MOSUNNY 79 67 66 S7 30.15S $$ NYZ177-179-078>081-061500- LONG ISLAND NEW YORK CITY SKY/WX TMP DP RH WIND PRES REMARKS FARMINGDALE MOSUNNY 78 68 71 SW8 30.17R ISLIP PTSUNNY 78 68 71 S5 30.15S SHIRLEY MOSUNNY 77 70 79 S3 30.17S WESTHAMPTON PTSUNNY 75 71 87 SW6 30.19R MONTAUK POINT N/A 74 69 85 CALM 30.18S $$ NYZ052-065-067-061500- HUDSON VALLEY CITY SKY/WX TMP DP RH WIND PRES REMARKS WHITE PLAINS MOSUNNY 77 67 71 SE5 30.16S NEWBURGH MOSUNNY 73 66 78 CALM 30.18S MONTGOMERY MOSUNNY 73 66 78 S3 30.16F POUGHKEEPSIE MOSUNNY 74 64 71 CALM 30.15F ALBANY MOSUNNY 73 63 70 NE3 30.17S $$ NJZ001-105-106-008-010-013-015-019>022-104-061500- NEW JERSEY CITY SKY/WX TMP DP RH WIND PRES REMARKS NEWARK/LIBERTY PTSUNNY 79 66 64 SE6 30.16R TETERBORO MOSUNNY 79 67 66 S7 30.15S CALDWELL MOSUNNY 76 66 71 VRB3 30.16F MORRISTOWN PTSUNNY 79 70 73 CALM 30.17S SOMERVILLE PTSUNNY 78 68 71 CALM 30.14S SUSSEX PTSUNNY 75 65 70 CALM 30.16F ANDOVER N/A 75 67 76 CALM 30.17F TRENTON MOSUNNY 79 68 69 SE9 30.15S MILLVILLE PTSUNNY 78 71 79 SE9 30.15S ATLANTIC CITY CLOUDY 77 69 76 SE10 30.17R WRIGHTSTOWN MOSUNNY 78 70 75 VRB7 30.14S TOMS RIVER PTSUNNY 79 66 65 SE6 30.17S BELMAR MOSUNNY 79 64 61 SE6 30.17S $$ PAZ047>061-062-071-061500- EASTERN PENNSYLVANIA CITY SKY/WX TMP DP RH WIND PRES REMARKS PHILADELPHIA CLOUDY 79 70 74 SE5 30.16R ALLENTOWN PTSUNNY 77 66 68 SE3 30.16S SCRANTON PTSUNNY 74 64 71 CALM 30.17S $$ CTZ002-004>006-009-010-012-RIZ004-006-007-MAZ004-011-015-061500- SOUTHERN NEW ENGLAND IN CT CITY SKY/WX TMP DP RH WIND PRES REMARKS BRADLEY INTL PTSUNNY 72 62 71 CALM 30.16S HARTFORD MOSUNNY 75 66 73 SE9 30.16S DANBURY MOSUNNY 76 63 64 CALM 30.18S WTRBRY/OXFORD SUNNY 75 63 64 CALM 30.20S BRIDGEPORT PTSUNNY 73 67 81 S5 30.16S MERIDEN MOSUNNY 76 65 68 CALM 30.16S NEW HAVEN PTSUNNY 73 67 81 S6 30.16S CHESTER FAIR 75 64 69 SW5 30.18S GROTON MOSUNNY 70 66 87 S7 30.16S WILLIMANTIC PTSUNNY 73 64 73 CALM 30.17S IN RI CITY SKY/WX TMP DP RH WIND PRES REMARKS PROVIDENCE PTSUNNY 76 66 71 VRB5 30.17 BLOCK ISLAND MOSUNNY 73 66 78 W8 30.18R WESTERLY MOSUNNY 75 66 73 S5 30.17S IN MA CITY SKY/WX TMP DP RH WIND PRES REMARKS BOSTON MOSUNNY 77 63 61 SE6 30.16S WORCESTER MOSUNNY 77 61 57 W7 30.20R WESTFIELD MOSUNNY 72 61 68 CALM 30.17S PROVINCETOWN SUNNY 77 18 10 NW5 30.17R NANTUCKET PTSUNNY 73 67 81 W10 30.17S $$ ANZ330-335-338-340-345-350-353-355-061500- COASTAL MARINE OBSERVATIONS STATION/POSITION TIME SKY/WX TEMP WIND PRES VSBY WAVE AIR SEA DIR/SP/G HT/PER (UTC) (F) (DEG/KT/KT) (MB) (MI) (FT/S) NY HARB ENTRANCE 1350 72 72 140/ 4/ 6 1021.2 2/ 7 4S FIRE IS 1303 70 N/A 2/ 7 20S FIRE ISLAND 1350 71 70 170/ 4/ 6 1021.5 2/ 6 GREAT SOUTH BAY 1300 72 75 230/ 6/ 8 N/A 23SW MTP 1350 70 69 210/ 6/ 6 1021.3 3/ 7 HUDSON CANYON NOT AVBL KINGS POINT 1300 72 73 20/ 3/ 5 1020.5 CENTRAL LI SOUND NOT AVBL EASTERN LI SOUND 1300 69 66 CALM / 2 N/A ROBBINS REEF 1300 72 90/ 2/ 2 1020.2 $$ >>>>>>>>>>>>>>>>>>>>>>>>>>>> KEY <<<<<<<<<<<<<<<<<<<<<<<<<<< > < > SKY/WX - SKY CONDITION/PRESENT WEATHER < > TMP - TEMPERATURE IN FAHRENHEIT < > DP - DEWPOINT IN FAHRENHEIT < > RH - RELATIVE HUMIDITY IN PERCENT < > WIND - DIRECTION AND SPEED IN MPH < > PRES - MEAN SEA LEVEL PRESSURE IN INCHES OF HG < > WCI - WIND CHILL INDEX < > VSB - VISIBILITY IN MILES < > HX - HEAT INDEX < > TC - TEMPERATURE IN CELSIUS < > VRB - VARIABLE WIND DIRECTION < > < >>>>>>>>>>>>>>>>>>>>>>>>>>>> KEY <<<<<<<<<<<<<<<<<<<<<<<<<<<

USA.gov is the U.S. government's official web portal to all federal, state and local government web resources and services.